ORBCOMM FM21 [+]

Last updated on Sat May 13 2023 00:03:01 GMT+0000 (Coordinated Universal Time)

1 25475U 98053A 23132.12005883 .00001524 00000+0 58938-3 0 9993 2 25475 45.0093 291.4985 0000416 168.6560 191.4296 14.34126043287026
UTC large
Height (km)
Speed (km/s)
/
Latitude / Longitude
Inclination (degrees)
Orbital Period (minutes)
Azimuth
Elevation
Range (km)
Doppler Factor

Next 0 passes for location: London (51.5072 / 0.1276)

Sorry there are no passes over London.